Time,TemperatureF,DewpointF,PressureIn,WindDirection,WindDirectionDegrees,WindSpeedMPH,WindSpeedGustMPH,Humidity,HourlyPrecipIn,Conditions,Clouds,dailyrainin,SoftwareType,DateUTC
2015-07-07 00:03:00,75.0,69.0,-100.00,West,275,1.0,3.0,80,-99.99,,,-99.99,,2015-07-07 04:03:00,
2015-07-07 00:13:00,75.0,69.0,-100.00,South,190,0.0,3.0,80,-99.99,,,-99.99,,2015-07-07 04:13:00,
2015-07-07 00:23:00,75.0,69.0,-100.00,WSW,240,1.0,3.0,80,-99.99,,,-99.99,,2015-07-07 04:23:00,
2015-07-07 00:33:00,75.0,69.0,-100.00,NNW,335,1.0,4.0,80,-99.99,,,-99.99,,2015-07-07 04:33:00,
2015-07-07 00:43:00,75.0,69.0,-100.00,SW,225,0.0,2.0,81,-99.99,,,-99.99,,2015-07-07 04:43:00,
2015-07-07 00:53:00,75.0,69.0,-100.00,NNE,20,0.0,2.0,81,-99.99,,,-99.99,,2015-07-07 04:53:00,
2015-07-07 01:03:00,75.0,69.0,-100.00,SW,235,1.0,3.0,81,-99.99,,,-99.99,,2015-07-07 05:03:00,
2015-07-07 01:13:00,74.0,69.0,-100.00,West,265,0.0,2.0,82,-99.99,,,-99.99,,2015-07-07 05:13:00,
2015-07-07 01:23:00,74.0,69.0,-100.00,SW,215,1.0,4.0,83,-99.99,,,-99.99,,2015-07-07 05:23:00,
2015-07-07 01:34:00,74.0,69.0,-100.00,West,265,1.0,3.0,84,-99.99,,,-99.99,,2015-07-07 05:34:00,
2015-07-07 01:44:00,73.0,69.0,-100.00,West,265,1.0,3.0,85,-99.99,,,-99.99,,2015-07-07 05:44:00,
2015-07-07 01:53:00,73.0,69.0,-100.00,SW,230,2.0,5.0,85,-99.99,,,-99.99,,2015-07-07 05:53:00,
2015-07-07 02:03:00,73.0,69.0,-100.00,SSW,210,3.0,5.0,86,-99.99,,,-99.99,,2015-07-07 06:03:00,
2015-07-07 02:13:00,73.0,69.0,-100.00,WSW,240,1.0,5.0,86,-99.99,,,-99.99,,2015-07-07 06:13:00,
2015-07-07 02:23:00,73.0,69.0,-100.00,West,280,1.0,3.0,88,-99.99,,,-99.99,,2015-07-07 06:23:00,
2015-07-07 02:33:00,72.0,69.0,-100.00,SW,220,2.0,3.0,88,-99.99,,,-99.99,,2015-07-07 06:33:00,
2015-07-07 02:44:00,72.0,69.0,-100.00,SW,220,2.0,3.0,88,-99.99,,,-99.99,,2015-07-07 06:44:00,
2015-07-07 02:53:00,72.0,69.0,-100.00,SW,220,2.0,3.0,88,-99.99,,,-99.99,,2015-07-07 06:53:00,
2015-07-07 03:03:00,72.0,69.0,-100.00,SW,220,2.0,3.0,88,-99.99,,,-99.99,,2015-07-07 07:03:00,
2015-07-07 03:13:00,72.0,69.0,-100.00,SW,230,2.0,3.0,89,-99.99,,,-99.99,,2015-07-07 07:13:00,
2015-07-07 03:23:00,72.0,69.0,-100.00,SW,230,2.0,3.0,89,-99.99,,,-99.99,,2015-07-07 07:23:00,
2015-07-07 03:33:00,72.0,69.0,-100.00,SW,230,2.0,3.0,90,-99.99,,,-99.99,,2015-07-07 07:33:00,
2015-07-07 03:44:00,72.0,69.0,-100.00,WSW,255,1.0,4.0,90,-99.99,,,-99.99,,2015-07-07 07:44:00,
2015-07-07 03:53:00,72.0,69.0,-100.00,SW,220,1.0,5.0,90,-99.99,,,-99.99,,2015-07-07 07:53:00,
2015-07-07 04:12:00,72.0,69.0,-100.00,SW,225,3.0,4.0,90,-99.99,,,-99.99,,2015-07-07 08:12:00,
2015-07-07 04:23:00,73.0,69.0,-100.00,SW,230,2.0,5.0,89,-99.99,,,-99.99,,2015-07-07 08:23:00,
2015-07-07 04:33:00,73.0,69.0,-100.00,SW,215,4.0,6.0,89,-99.99,,,-99.99,,2015-07-07 08:33:00,
2015-07-07 04:43:00,73.0,69.0,-100.00,SW,230,2.0,5.0,88,-99.99,,,-99.99,,2015-07-07 08:43:00,
2015-07-07 04:53:00,73.0,69.0,-100.00,WSW,240,3.0,6.0,88,-99.99,,,-99.99,,2015-07-07 08:53:00,
2015-07-07 05:03:00,73.0,69.0,-100.00,SW,225,3.0,6.0,88,-99.99,,,-99.99,,2015-07-07 09:03:00,
2015-07-07 05:13:00,73.0,70.0,-100.00,SW,235,3.0,6.0,88,-99.99,,,-99.99,,2015-07-07 09:13:00,
2015-07-07 05:23:00,73.0,70.0,-100.00,SW,215,5.0,6.0,88,-99.99,,,-99.99,,2015-07-07 09:23:00,
2015-07-07 05:33:00,74.0,70.0,-100.00,SW,220,2.0,7.0,87,-99.99,,,-99.99,,2015-07-07 09:33:00,
2015-07-07 05:43:00,73.0,70.0,-100.00,SW,225,2.0,7.0,87,-99.99,,,-99.99,,2015-07-07 09:43:00,
2015-07-07 05:53:00,74.0,70.0,-100.00,SW,225,3.0,8.0,87,-99.99,,,-99.99,,2015-07-07 09:53:00,
2015-07-07 06:03:00,74.0,70.0,-100.00,SW,225,6.0,11.0,87,-99.99,,,-99.99,,2015-07-07 10:03:00,
2015-07-07 06:13:00,74.0,70.0,-100.00,SW,225,2.0,9.0,88,-99.99,,,-99.99,,2015-07-07 10:13:00,
2015-07-07 06:23:00,74.0,70.0,-100.00,SW,225,3.0,9.0,89,-99.99,,,-99.99,,2015-07-07 10:23:00,
2015-07-07 06:33:00,74.0,70.0,-100.00,SW,220,4.0,12.0,89,-99.99,,,-99.99,,2015-07-07 10:33:00,
2015-07-07 06:43:00,74.0,70.0,-100.00,SW,215,2.0,9.0,88,-99.99,,,-99.99,,2015-07-07 10:43:00,
2015-07-07 06:53:00,74.0,71.0,-100.00,SW,225,3.0,10.0,88,-99.99,,,-99.99,,2015-07-07 10:53:00,
2015-07-07 07:04:00,74.0,71.0,-100.00,SW,215,4.0,11.0,88,-99.99,,,-99.99,,2015-07-07 11:04:00,
2015-07-07 07:13:00,74.0,71.0,-100.00,WSW,250,3.0,9.0,88,-99.99,,,-99.99,,2015-07-07 11:13:00,
2015-07-07 07:24:00,74.0,71.0,-100.00,SW,215,4.0,8.0,89,-99.99,,,-99.99,,2015-07-07 11:24:00,
2015-07-07 07:35:00,74.0,71.0,-100.00,SSW,200,2.0,11.0,88,-99.99,,,-99.99,,2015-07-07 11:35:00,
2015-07-07 07:44:00,74.0,71.0,-100.00,SW,215,4.0,9.0,88,-99.99,,,-99.99,,2015-07-07 11:44:00,
2015-07-07 07:53:00,74.0,71.0,-100.00,NW,315,1.0,9.0,88,-99.99,,,-99.99,,2015-07-07 11:53:00,
2015-07-07 08:03:00,75.0,71.0,-100.00,SSW,210,4.0,7.0,88,-99.99,,,-99.99,,2015-07-07 12:03:00,
2015-07-07 08:13:00,75.0,71.0,-100.00,SSW,200,6.0,9.0,87,-99.99,,,-99.99,,2015-07-07 12:13:00,
2015-07-07 08:23:00,75.0,71.0,-100.00,SSW,200,6.0,9.0,87,-99.99,,,-99.99,,2015-07-07 12:23:00,
2015-07-07 08:44:00,76.0,72.0,-100.00,SSW,205,6.0,10.0,85,-99.99,,,-99.99,,2015-07-07 12:44:00,
2015-07-07 08:54:00,77.0,72.0,-100.00,SW,215,6.0,11.0,84,-99.99,,,-99.99,,2015-07-07 12:54:00,
2015-07-07 09:03:00,77.0,72.0,-100.00,SSW,200,5.0,12.0,84,-99.99,,,-99.99,,2015-07-07 13:03:00,
2015-07-07 09:13:00,77.0,72.0,-100.00,SW,215,5.0,11.0,84,-99.99,,,-99.99,,2015-07-07 13:13:00,
2015-07-07 09:23:00,77.0,72.0,-100.00,SW,225,5.0,9.0,84,-99.99,,,-99.99,,2015-07-07 13:23:00,
2015-07-07 09:33:00,77.0,72.0,-100.00,SSW,210,6.0,11.0,84,-99.99,,,-99.99,,2015-07-07 13:33:00,
2015-07-07 09:43:00,77.0,72.0,-100.00,SW,220,5.0,9.0,84,-99.99,,,-99.99,,2015-07-07 13:43:00,
2015-07-07 09:53:00,77.0,72.0,-100.00,SW,215,6.0,9.0,83,-99.99,,,-99.99,,2015-07-07 13:53:00,
2015-07-07 10:03:00,78.0,72.0,-100.00,SW,220,5.0,11.0,82,-99.99,,,-99.99,,2015-07-07 14:03:00,
2015-07-07 10:13:00,78.0,72.0,-100.00,SW,220,6.0,10.0,80,-99.99,,,-99.99,,2015-07-07 14:13:00,
2015-07-07 10:23:00,79.0,72.0,-100.00,NNE,15,4.0,13.0,79,-99.99,,,-99.99,,2015-07-07 14:23:00,
2015-07-07 10:33:00,78.0,71.0,-100.00,SSW,210,6.0,11.0,79,-99.99,,,-99.99,,2015-07-07 14:33:00,
2015-07-07 10:43:00,79.0,72.0,-100.00,SSW,195,4.0,10.0,79,-99.99,,,-99.99,,2015-07-07 14:43:00,
2015-07-07 10:53:00,79.0,72.0,-100.00,SSW,195,4.0,9.0,78,-99.99,,,-99.99,,2015-07-07 14:53:00,
2015-07-07 11:03:00,79.0,72.0,-100.00,SSW,210,6.0,15.0,78,-99.99,,,-99.99,,2015-07-07 15:03:00,
2015-07-07 11:13:00,78.0,71.0,-100.00,SW,220,7.0,12.0,79,-99.99,,,-99.99,,2015-07-07 15:13:00,
2015-07-07 11:23:00,79.0,72.0,-100.00,SW,225,5.0,9.0,79,-99.99,,,-99.99,,2015-07-07 15:23:00,
2015-07-07 11:33:00,79.0,72.0,-100.00,SSW,205,4.0,10.0,78,-99.99,,,-99.99,,2015-07-07 15:33:00,
2015-07-07 11:43:00,80.0,72.0,-100.00,SSW,195,2.0,12.0,78,-99.99,,,-99.99,,2015-07-07 15:43:00,
2015-07-07 11:53:00,80.0,72.0,-100.00,SW,220,7.0,10.0,77,-99.99,,,-99.99,,2015-07-07 15:53:00,
2015-07-07 12:03:00,80.0,73.0,-100.00,NNE,20,4.0,9.0,77,-99.99,,,-99.99,,2015-07-07 16:03:00,
2015-07-07 12:13:00,81.0,73.0,-100.00,WSW,255,4.0,12.0,76,-99.99,,,-99.99,,2015-07-07 16:13:00,
2015-07-07 12:23:00,81.0,72.0,-100.00,SW,225,8.0,12.0,76,-99.99,,,-99.99,,2015-07-07 16:23:00,
2015-07-07 12:34:00,81.0,72.0,-100.00,SW,225,8.0,12.0,76,-99.99,,,-99.99,,2015-07-07 16:34:00,
2015-07-07 12:43:00,81.0,72.0,-100.00,SW,215,7.0,17.0,74,-99.99,,,-99.99,,2015-07-07 16:43:00,
2015-07-07 13:05:00,83.0,72.0,-100.00,SW,220,3.0,12.0,70,-99.99,,,-99.99,,2015-07-07 17:05:00,
2015-07-07 13:14:00,83.0,72.0,-100.00,SSW,205,4.0,10.0,71,-99.99,,,-99.99,,2015-07-07 17:14:00,
2015-07-07 13:24:00,83.0,73.0,-100.00,SW,235,4.0,11.0,71,-99.99,,,-99.99,,2015-07-07 17:24:00,
2015-07-07 13:34:00,82.0,71.0,-100.00,SSW,205,4.0,11.0,70,-99.99,,,-99.99,,2015-07-07 17:34:00,
2015-07-07 13:44:00,83.0,72.0,-100.00,SW,215,4.0,11.0,68,-99.99,,,-99.99,,2015-07-07 17:44:00,
2015-07-07 13:54:00,83.0,72.0,-100.00,SW,220,4.0,10.0,68,-99.99,,,-99.99,,2015-07-07 17:54:00,
2015-07-07 14:04:00,83.0,72.0,-100.00,SSW,195,4.0,11.0,69,-99.99,,,-99.99,,2015-07-07 18:04:00,
2015-07-07 14:14:00,82.0,71.0,-100.00,SSW,210,7.0,14.0,71,-99.99,,,-99.99,,2015-07-07 18:14:00,